Location: Chuathbaluk
(61.5726°N, 159.2454°W)
Time: 22:37:10
(UTC+00:00)

Explorer 7 - Pass Details

Date: 09 December 2021
Orbit: 483 x 674 km, 50.3° (Epoch: 21 January)

Event Time Altitude Azimuth Distance (km) Brightness Sun altitude
Exits shadow 15:14:48 13° 155° (SSE) 1,694 9.5 -28.8°
Drops below altitude 10° 15:16:28 10° 131° (SE) 1,854 10.0 -28.6°
Sets 15:19:44 0° 103° (ESE) 2,702 11.5 -28.3°
